Wetterdaten: Donnerstag, 21.01.2016
Datum Zeit Auen-Temp. Temp gefhlt Luftfeuchte Luftdruck Regen Wind Richtung Richtung Taupunkt Windben
21.01.2016 00:00 -6,0 C -6,3 C 88 % 1022,0 hPa 0,0 mm 2,8 km/h (1 Bft) N 360 -7,7 C 3,9 km/h (1 Bft)
21.01.2016 00:05 -5,8 C -6,3 C 88 % 1022,2 hPa 0,0 mm 3,9 km/h (1 Bft) N 360 -7,5 C 8,8 km/h (2 Bft)
21.01.2016 00:10 -5,5 C -6,6 C 88 % 1022,2 hPa 0,0 mm 8,0 km/h (2 Bft) N 360 -7,2 C 12,7 km/h (3 Bft)
21.01.2016 00:15 -5,4 C -6,7 C 88 % 1022,2 hPa 0,0 mm 9,3 km/h (2 Bft) N 360 -7,1 C 16,6 km/h (3 Bft)
21.01.2016 00:20 -5,4 C -6,7 C 88 % 1022,2 hPa 0,0 mm 9,8 km/h (2 Bft) N 360 -7,1 C 10,9 km/h (2 Bft)
21.01.2016 00:25 -5,6 C -6,8 C 88 % 1022,1 hPa 0,0 mm 9,8 km/h (2 Bft) N 360 -7,3 C 18,9 km/h (3 Bft)
21.01.2016 00:30 -5,8 C -6,9 C 88 % 1022,1 hPa 0,0 mm 8,8 km/h (2 Bft) N 360 -7,5 C 11,4 km/h (2 Bft)
21.01.2016 00:35 -6,0 C -6,9 C 88 % 1022,1 hPa 0,0 mm 7,3 km/h (2 Bft) N 360 -7,7 C 6,5 km/h (2 Bft)
21.01.2016 00:40 -6,1 C -6,6 C 87 % 1022,1 hPa 0,0 mm 4,1 km/h (1 Bft) N 360 -7,9 C 3,4 km/h (1 Bft)
21.01.2016 00:45 -6,5 C -6,7 C 87 % 1022,3 hPa 0,0 mm 1,8 km/h (1 Bft) N 360 -8,3 C 0,0 km/h (0 Bft)
21.01.2016 00:50 -6,8 C -7,0 C 87 % 1022,3 hPa 0,0 mm 0,5 km/h (0 Bft) N 360 -8,6 C 0,0 km/h (0 Bft)
21.01.2016 00:55 -6,6 C -6,9 C 87 % 1022,3 hPa 0,0 mm 0,0 km/h (0 Bft) N 360 -8,4 C 0,0 km/h (0 Bft)
21.01.2016 01:00 -6,2 C -6,6 C 87 % 1022,3 hPa 0,0 mm 0,0 km/h (0 Bft) N 360 -8,0 C 0,0 km/h (0 Bft)
21.01.2016 01:05 -6,3 C -6,6 C 87 % 1022,3 hPa 0,0 mm 0,0 km/h (0 Bft) N 360 -8,1 C 0,0 km/h (0 Bft)
21.01.2016 01:10 -6,5 C -6,8 C 87 % 1022,3 hPa 0,0 mm 0,0 km/h (0 Bft) N 360 -8,3 C 0,0 km/h (0 Bft)
21.01.2016 01:15 -6,3 C -6,6 C 87 % 1022,3 hPa 0,0 mm 0,0 km/h (0 Bft) N 360 -8,1 C 2,8 km/h (1 Bft)
21.01.2016 01:20 -6,1 C -6,4 C 87 % 1022,3 hPa 0,0 mm 0,5 km/h (0 Bft) N 360 -7,9 C 0,0 km/h (0 Bft)
21.01.2016 01:25 -6,0 C -6,3 C 87 % 1022,3 hPa 0,0 mm 0,8 km/h (0 Bft) N 360 -7,8 C 0,0 km/h (0 Bft)
21.01.2016 01:30 -6,3 C -6,5 C 87 % 1022,3 hPa 0,0 mm 0,5 km/h (0 Bft) N 360 -8,1 C 0,0 km/h (0 Bft)
21.01.2016 01:35 -6,7 C -6,8 C 87 % 1022,3 hPa 0,0 mm 0,5 km/h (0 Bft) N 360 -8,5 C 0,0 km/h (0 Bft)
21.01.2016 01:40 -6,2 C -6,4 C 87 % 1022,3 hPa 0,0 mm 1,0 km/h (0 Bft) N 360 -8,0 C 0,0 km/h (0 Bft)
21.01.2016 01:45 -6,7 C -6,8 C 87 % 1022,6 hPa 0,0 mm 1,0 km/h (0 Bft) N 360 -8,5 C 0,0 km/h (0 Bft)
21.01.2016 01:50 -6,6 C -6,9 C 87 % 1022,6 hPa 0,0 mm 0,0 km/h (0 Bft) N 360 -8,4 C 0,0 km/h (0 Bft)
21.01.2016 01:55 -6,6 C -6,9 C 87 % 1022,6 hPa 0,0 mm 0,0 km/h (0 Bft) N 360 -8,4 C 0,0 km/h (0 Bft)
21.01.2016 02:00 -6,5 C -6,8 C 87 % 1022,6 hPa 0,0 mm 0,0 km/h (0 Bft) N 360 -8,3 C 0,0 km/h (0 Bft)
21.01.2016 02:05 -6,6 C -6,8 C 87 % 1022,5 hPa 0,0 mm 0,0 km/h (0 Bft) N 360 -8,4 C 0,0 km/h (0 Bft)
21.01.2016 02:10 -6,6 C -6,8 C 87 % 1022,5 hPa 0,0 mm 1,0 km/h (0 Bft) N 360 -8,4 C 7,3 km/h (2 Bft)
21.01.2016 02:15 -5,9 C -6,2 C 87 % 1022,5 hPa 0,0 mm 2,8 km/h (1 Bft) N 360 -7,7 C 4,1 km/h (1 Bft)
21.01.2016 02:20 -5,6 C -6,2 C 87 % 1022,5 hPa 0,0 mm 4,9 km/h (1 Bft) N 360 -7,4 C 6,0 km/h (2 Bft)
21.01.2016 02:25 -5,4 C -5,9 C 88 % 1022,6 hPa 0,0 mm 4,1 km/h (1 Bft) N 360 -7,1 C 2,8 km/h (1 Bft)
21.01.2016 02:30 -5,7 C -5,9 C 87 % 1022,6 hPa 0,0 mm 3,6 km/h (1 Bft) N 360 -7,5 C 0,0 km/h (0 Bft)
21.01.2016 02:35 -6,0 C -6,0 C 87 % 1022,6 hPa 0,0 mm 2,6 km/h (1 Bft) N 360 -7,8 C 3,6 km/h (1 Bft)
21.01.2016 02:40 -5,3 C -5,6 C 87 % 1022,6 hPa 0,0 mm 3,4 km/h (1 Bft) N 360 -7,1 C 7,3 km/h (2 Bft)
21.01.2016 02:45 -5,2 C -5,6 C 87 % 1022,8 hPa 0,0 mm 3,9 km/h (1 Bft) N 360 -7,0 C 4,1 km/h (1 Bft)
21.01.2016 02:50 -5,1 C -5,5 C 87 % 1022,8 hPa 0,0 mm 4,1 km/h (1 Bft) N 360 -6,9 C 8,0 km/h (2 Bft)
21.01.2016 02:55 -5,0 C -5,5 C 87 % 1022,8 hPa 0,0 mm 4,7 km/h (1 Bft) N 360 -6,8 C 9,6 km/h (2 Bft)
21.01.2016 03:00 -4,9 C -5,4 C 87 % 1022,8 hPa 0,0 mm 4,1 km/h (1 Bft) N 360 -6,7 C 0,0 km/h (0 Bft)
21.01.2016 03:05 -5,0 C -5,2 C 87 % 1022,9 hPa 0,0 mm 2,6 km/h (1 Bft) N 360 -6,8 C 0,0 km/h (0 Bft)
21.01.2016 03:10 -5,2 C -5,4 C 86 % 1022,9 hPa 0,0 mm 0,0 km/h (0 Bft) N 360 -7,2 C 0,0 km/h (0 Bft)
21.01.2016 03:15 -5,1 C -5,3 C 86 % 1022,9 hPa 0,0 mm 0,5 km/h (0 Bft) N 360 -7,1 C 7,3 km/h (2 Bft)
21.01.2016 03:20 -4,9 C -5,2 C 86 % 1022,9 hPa 0,0 mm 1,8 km/h (1 Bft) N 360 -6,9 C 5,7 km/h (1 Bft)
21.01.2016 03:25 -4,9 C -5,2 C 86 % 1022,9 hPa 0,0 mm 2,1 km/h (1 Bft) N 360 -6,9 C 0,0 km/h (0 Bft)
21.01.2016 03:30 -5,1 C -5,3 C 86 % 1022,9 hPa 0,0 mm 1,3 km/h (1 Bft) N 360 -7,1 C 5,7 km/h (1 Bft)
21.01.2016 03:35 -5,1 C -5,3 C 86 % 1022,9 hPa 0,0 mm 0,8 km/h (0 Bft) N 360 -7,1 C 0,0 km/h (0 Bft)
21.01.2016 03:40 -5,1 C -5,3 C 86 % 1022,9 hPa 0,0 mm 0,5 km/h (0 Bft) N 360 -7,1 C 0,0 km/h (0 Bft)
21.01.2016 03:45 -5,1 C -5,3 C 86 % 1023,0 hPa 0,0 mm 0,3 km/h (0 Bft) N 360 -7,1 C 0,0 km/h (0 Bft)
21.01.2016 03:49 -5,1 C -5,3 C 86 % 1023,0 hPa 0,0 mm 0,3 km/h (0 Bft) N 360 -7,1 C 0,0 km/h (0 Bft)
21.01.2016 03:50 -4,8 C -5,1 C 86 % 1023,0 hPa 0,0 mm 0,0 km/h (0 Bft) N 360 -6,8 C 0,0 km/h (0 Bft)
21.01.2016 03:55 -4,8 C -5,0 C 81 % 1023,0 hPa 0,0 mm 0,0 km/h (0 Bft) N 360 -7,5 C 0,0 km/h (0 Bft)
21.01.2016 04:00 -4,8 C -5,1 C 86 % 1023,0 hPa 0,0 mm 0,0 km/h (0 Bft) N 360 -6,8 C 0,0 km/h (0 Bft)
21.01.2016 04:05 -4,8 C -5,1 C 86 % 1023,3 hPa 0,0 mm 0,0 km/h (0 Bft) N 360 -6,8 C 0,0 km/h (0 Bft)
21.01.2016 04:10 -4,9 C -5,1 C 81 % 1023,3 hPa 0,0 mm 0,0 km/h (0 Bft) N 360 -7,6 C 0,0 km/h (0 Bft)
21.01.2016 04:15 -4,9 C -5,2 C 86 % 1023,3 hPa 0,0 mm 0,0 km/h (0 Bft) N 360 -6,9 C 0,0 km/h (0 Bft)
21.01.2016 04:20 -4,9 C -5,2 C 86 % 1023,3 hPa 0,0 mm 0,0 km/h (0 Bft) N 360 -6,9 C 0,0 km/h (0 Bft)
21.01.2016 04:25 -4,9 C -5,2 C 86 % 1023,2 hPa 0,0 mm 0,0 km/h (0 Bft) N 360 -6,9 C 0,0 km/h (0 Bft)
21.01.2016 04:30 -4,9 C -5,2 C 86 % 1023,2 hPa 0,0 mm 0,0 km/h (0 Bft) N 360 -6,9 C 0,0 km/h (0 Bft)
21.01.2016 04:35 -4,9 C -5,1 C 81 % 1023,2 hPa 0,0 mm 0,0 km/h (0 Bft) N 360 -7,6 C 0,0 km/h (0 Bft)
21.01.2016 04:40 -4,8 C -5,1 C 86 % 1023,2 hPa 0,0 mm 0,0 km/h (0 Bft) N 360 -6,8 C 0,0 km/h (0 Bft)
21.01.2016 04:45 -4,8 C -5,1 C 86 % 1023,3 hPa 0,0 mm 0,0 km/h (0 Bft) N 360 -6,8 C 0,0 km/h (0 Bft)
21.01.2016 04:50 -4,9 C -5,2 C 86 % 1023,3 hPa 0,0 mm 0,0 km/h (0 Bft) N 360 -6,9 C 0,0 km/h (0 Bft)
21.01.2016 04:55 -5,1 C -5,3 C 86 % 1023,3 hPa 0,0 mm 0,0 km/h (0 Bft) N 360 -7,1 C 0,0 km/h (0 Bft)
21.01.2016 05:00 -5,0 C -5,3 C 86 % 1023,3 hPa 0,0 mm 1,8 km/h (1 Bft) N 360 -7,0 C 4,1 km/h (1 Bft)
21.01.2016 05:05 -4,9 C -5,2 C 86 % 1023,3 hPa 0,0 mm 2,6 km/h (1 Bft) N 360 -6,9 C 0,0 km/h (0 Bft)
21.01.2016 05:10 -5,1 C -5,3 C 86 % 1023,3 hPa 0,0 mm 1,3 km/h (1 Bft) N 360 -7,1 C 0,0 km/h (0 Bft)
21.01.2016 05:15 -5,2 C -5,4 C 86 % 1023,3 hPa 0,0 mm 0,0 km/h (0 Bft) N 360 -7,2 C 0,0 km/h (0 Bft)
21.01.2016 05:20 -5,1 C -5,4 C 86 % 1023,3 hPa 0,0 mm 0,3 km/h (0 Bft) N 360 -7,1 C 0,0 km/h (0 Bft)
21.01.2016 05:25 -5,1 C -5,4 C 86 % 1023,0 hPa 0,0 mm 0,3 km/h (0 Bft) N 360 -7,1 C 0,0 km/h (0 Bft)
21.01.2016 05:30 -5,2 C -5,5 C 86 % 1023,0 hPa 0,0 mm 0,0 km/h (0 Bft) N 360 -7,2 C 0,0 km/h (0 Bft)
21.01.2016 05:35 -5,1 C -5,5 C 86 % 1023,0 hPa 0,0 mm 0,0 km/h (0 Bft) N 360 -7,1 C 0,0 km/h (0 Bft)
21.01.2016 05:40 -5,1 C -5,5 C 86 % 1023,0 hPa 0,0 mm 0,0 km/h (0 Bft) N 360 -7,1 C 0,0 km/h (0 Bft)
21.01.2016 05:45 -5,1 C -5,5 C 86 % 1023,5 hPa 0,0 mm 0,0 km/h (0 Bft) N 360 -7,1 C 0,0 km/h (0 Bft)
21.01.2016 05:50 -5,2 C -5,5 C 85 % 1023,5 hPa 0,0 mm 0,0 km/h (0 Bft) N 360 -7,3 C 0,0 km/h (0 Bft)
21.01.2016 05:55 -5,2 C -5,6 C 85 % 1023,5 hPa 0,0 mm 0,0 km/h (0 Bft) N 360 -7,3 C 0,0 km/h (0 Bft)
21.01.2016 06:00 -5,1 C -5,5 C 85 % 1023,5 hPa 0,0 mm 0,0 km/h (0 Bft) N 360 -7,2 C 0,0 km/h (0 Bft)
21.01.2016 06:05 -5,1 C -5,5 C 85 % 1023,8 hPa 0,0 mm 0,0 km/h (0 Bft) N 360 -7,2 C 0,0 km/h (0 Bft)
21.01.2016 06:10 -5,1 C -5,5 C 85 % 1023,8 hPa 0,0 mm 0,0 km/h (0 Bft) N 360 -7,2 C 0,0 km/h (0 Bft)
21.01.2016 06:15 -5,1 C -5,5 C 85 % 1023,8 hPa 0,0 mm 0,0 km/h (0 Bft) N 360 -7,2 C 0,0 km/h (0 Bft)
21.01.2016 06:20 -5,2 C -5,5 C 85 % 1023,8 hPa 0,0 mm 0,3 km/h (0 Bft) N 360 -7,3 C 2,8 km/h (1 Bft)
21.01.2016 06:25 -5,1 C -5,4 C 85 % 1024,0 hPa 0,0 mm 0,3 km/h (0 Bft) N 360 -7,2 C 0,0 km/h (0 Bft)
21.01.2016 06:30 -5,2 C -5,5 C 85 % 1024,0 hPa 0,0 mm 0,3 km/h (0 Bft) N 360 -7,3 C 0,0 km/h (0 Bft)
21.01.2016 06:35 -5,3 C -5,6 C 85 % 1024,0 hPa 0,0 mm 0,0 km/h (0 Bft) N 360 -7,4 C 0,0 km/h (0 Bft)
21.01.2016 06:40 -5,3 C -5,6 C 85 % 1024,0 hPa 0,0 mm 0,0 km/h (0 Bft) N 360 -7,4 C 0,0 km/h (0 Bft)
21.01.2016 06:45 -5,3 C -5,6 C 85 % 1024,0 hPa 0,0 mm 0,0 km/h (0 Bft) N 360 -7,4 C 0,0 km/h (0 Bft)
21.01.2016 06:50 -5,3 C -5,7 C 85 % 1024,0 hPa 0,0 mm 0,0 km/h (0 Bft) N 360 -7,4 C 0,0 km/h (0 Bft)
21.01.2016 06:55 -5,4 C -5,7 C 85 % 1024,0 hPa 0,0 mm 0,0 km/h (0 Bft) N 360 -7,5 C 0,0 km/h (0 Bft)
21.01.2016 07:00 -5,6 C -5,9 C 85 % 1024,0 hPa 0,0 mm 0,0 km/h (0 Bft) N 360 -7,7 C 0,0 km/h (0 Bft)
21.01.2016 07:05 -5,7 C -5,9 C 85 % 1024,2 hPa 0,0 mm 0,0 km/h (0 Bft) N 360 -7,8 C 0,0 km/h (0 Bft)
21.01.2016 07:10 -5,6 C -5,9 C 85 % 1024,2 hPa 0,0 mm 0,0 km/h (0 Bft) N 360 -7,7 C 0,0 km/h (0 Bft)
21.01.2016 07:15 -5,6 C -5,9 C 85 % 1024,2 hPa 0,0 mm 0,0 km/h (0 Bft) N 360 -7,7 C 0,0 km/h (0 Bft)
21.01.2016 07:20 -5,6 C -5,8 C 81 % 1024,2 hPa 0,0 mm 0,0 km/h (0 Bft) N 360 -8,3 C 0,0 km/h (0 Bft)
21.01.2016 07:25 -5,4 C -5,7 C 85 % 1024,3 hPa 0,0 mm 0,0 km/h (0 Bft) N 360 -7,5 C 0,0 km/h (0 Bft)
21.01.2016 07:30 -5,5 C -5,8 C 85 % 1024,3 hPa 0,0 mm 0,0 km/h (0 Bft) N 360 -7,6 C 0,0 km/h (0 Bft)
21.01.2016 07:35 -5,5 C -5,7 C 85 % 1024,3 hPa 0,0 mm 0,0 km/h (0 Bft) N 360 -7,6 C 0,0 km/h (0 Bft)
21.01.2016 07:40 -5,3 C -5,6 C 86 % 1024,3 hPa 0,0 mm 0,0 km/h (0 Bft) N 360 -7,3 C 0,0 km/h (0 Bft)
21.01.2016 07:45 -5,4 C -5,7 C 86 % 1024,5 hPa 0,0 mm 0,0 km/h (0 Bft) N 360 -7,4 C 0,0 km/h (0 Bft)
21.01.2016 07:50 -5,5 C -5,7 C 86 % 1024,5 hPa 0,0 mm 0,0 km/h (0 Bft) N 360 -7,5 C 0,0 km/h (0 Bft)
21.01.2016 07:55 -5,5 C -5,7 C 86 % 1024,5 hPa 0,0 mm 0,0 km/h (0 Bft) N 360 -7,5 C 0,0 km/h (0 Bft)
21.01.2016 08:00 -5,6 C -5,8 C 86 % 1024,5 hPa 0,0 mm 0,0 km/h (0 Bft) N 360 -7,6 C 0,0 km/h (0 Bft)
21.01.2016 08:05 -5,5 C -5,7 C 86 % 1024,7 hPa 0,0 mm 0,0 km/h (0 Bft) N 360 -7,5 C 0,0 km/h (0 Bft)
21.01.2016 08:10 -5,4 C -5,6 C 86 % 1024,7 hPa 0,0 mm 0,0 km/h (0 Bft) N 360 -7,4 C 0,0 km/h (0 Bft)
21.01.2016 08:15 -5,5 C -5,7 C 86 % 1024,7 hPa 0,0 mm 0,0 km/h (0 Bft) N 360 -7,5 C 0,0 km/h (0 Bft)
21.01.2016 08:20 -5,5 C -5,7 C 86 % 1024,7 hPa 0,0 mm 0,0 km/h (0 Bft) N 360 -7,5 C 0,0 km/h (0 Bft)
21.01.2016 08:25 -5,4 C -5,6 C 86 % 1024,8 hPa 0,0 mm 0,0 km/h (0 Bft) N 360 -7,4 C 0,0 km/h (0 Bft)
21.01.2016 08:30 -5,4 C -5,6 C 86 % 1024,8 hPa 0,0 mm 0,0 km/h (0 Bft) N 360 -7,4 C 0,0 km/h (0 Bft)
21.01.2016 08:35 -5,4 C -5,5 C 82 % 1024,8 hPa 0,0 mm 0,0 km/h (0 Bft) N 360 -8,0 C 0,0 km/h (0 Bft)
21.01.2016 08:40 -5,4 C -5,4 C 82 % 1024,8 hPa 0,0 mm 0,0 km/h (0 Bft) N 360 -8,0 C 0,0 km/h (0 Bft)
21.01.2016 08:45 -5,3 C -5,3 C 82 % 1025,0 hPa 0,0 mm 0,0 km/h (0 Bft) N 360 -7,9 C 0,0 km/h (0 Bft)
21.01.2016 08:50 -5,3 C -5,0 C 82 % 1025,0 hPa 0,0 mm 0,0 km/h (0 Bft) N 360 -7,9 C 0,0 km/h (0 Bft)
21.01.2016 08:55 -5,1 C -4,9 C 82 % 1025,0 hPa 0,0 mm 0,0 km/h (0 Bft) N 360 -7,7 C 0,0 km/h (0 Bft)
21.01.2016 09:00 -5,0 C -4,8 C 82 % 1025,0 hPa 0,0 mm 0,0 km/h (0 Bft) N 360 -7,6 C 0,0 km/h (0 Bft)
21.01.2016 09:05 -5,0 C -4,7 C 82 % 1025,8 hPa 0,0 mm 0,0 km/h (0 Bft) N 360 -7,6 C 0,0 km/h (0 Bft)
21.01.2016 09:10 -4,9 C -4,4 C 82 % 1025,8 hPa 0,0 mm 0,0 km/h (0 Bft) N 360 -7,5 C 0,0 km/h (0 Bft)
21.01.2016 09:15 -4,7 C -4,2 C 82 % 1025,8 hPa 0,0 mm 0,0 km/h (0 Bft) N 360 -7,3 C 0,0 km/h (0 Bft)
21.01.2016 09:20 -4,6 C -3,9 C 82 % 1025,8 hPa 0,0 mm 0,0 km/h (0 Bft) N 360 -7,2 C 0,0 km/h (0 Bft)
21.01.2016 09:25 -4,5 C -3,9 C 82 % 1025,8 hPa 0,0 mm 0,0 km/h (0 Bft) N 360 -7,1 C 0,0 km/h (0 Bft)
21.01.2016 09:30 -4,5 C -3,7 C 82 % 1025,8 hPa 0,0 mm 0,0 km/h (0 Bft) N 360 -7,1 C 0,0 km/h (0 Bft)
21.01.2016 09:35 -4,5 C -3,5 C 82 % 1025,8 hPa 0,0 mm 0,0 km/h (0 Bft) N 360 -7,1 C 3,1 km/h (1 Bft)
21.01.2016 09:40 -4,1 C -3,2 C 82 % 1025,8 hPa 0,0 mm 0,3 km/h (0 Bft) N 360 -6,7 C 0,0 km/h (0 Bft)
21.01.2016 09:45 -4,0 C -3,0 C 82 % 1025,4 hPa 0,0 mm 0,3 km/h (0 Bft) N 360 -6,6 C 0,0 km/h (0 Bft)
21.01.2016 09:50 -3,6 C -2,7 C 82 % 1025,4 hPa 0,0 mm 0,0 km/h (0 Bft) N 360 -6,2 C 0,0 km/h (0 Bft)
21.01.2016 09:55 -3,4 C -2,6 C 82 % 1025,4 hPa 0,0 mm 0,3 km/h (0 Bft) N 360 -6,0 C 6,0 km/h (2 Bft)
21.01.2016 10:00 -3,5 C -2,8 C 82 % 1025,4 hPa 0,0 mm 1,3 km/h (1 Bft) N 360 -6,1 C 0,0 km/h (0 Bft)
21.01.2016 10:05 -3,4 C -2,8 C 82 % 1025,5 hPa 0,0 mm 1,3 km/h (1 Bft) N 360 -6,0 C 3,6 km/h (1 Bft)
21.01.2016 10:10 -3,5 C -2,7 C 81 % 1025,5 hPa 0,0 mm 0,3 km/h (0 Bft) N 360 -6,3 C 0,0 km/h (0 Bft)
21.01.2016 10:15 -3,2 C -2,4 C 81 % 1025,5 hPa 0,0 mm 0,3 km/h (0 Bft) N 360 -6,0 C 0,0 km/h (0 Bft)
21.01.2016 10:20 -2,9 C -2,0 C 81 % 1025,5 hPa 0,0 mm 0,0 km/h (0 Bft) N 360 -5,7 C 0,0 km/h (0 Bft)
21.01.2016 10:25 -2,7 C -1,9 C 81 % 1025,8 hPa 0,0 mm 0,0 km/h (0 Bft) N 360 -5,5 C 0,0 km/h (0 Bft)
21.01.2016 10:30 -2,5 C -1,3 C 81 % 1025,8 hPa 0,0 mm 0,0 km/h (0 Bft) N 360 -5,3 C 0,0 km/h (0 Bft)
21.01.2016 10:35 -2,2 C -1,1 C 81 % 1025,8 hPa 0,0 mm 0,3 km/h (0 Bft) N 360 -5,0 C 2,6 km/h (1 Bft)
21.01.2016 10:40 -2,5 C -1,0 C 80 % 1025,8 hPa 0,0 mm 0,8 km/h (0 Bft) N 360 -5,5 C 2,8 km/h (1 Bft)
21.01.2016 10:45 -2,5 C -1,0 C 80 % 1026,3 hPa 0,0 mm 0,8 km/h (0 Bft) N 360 -5,5 C 3,6 km/h (1 Bft)
21.01.2016 10:50 -2,6 C -1,5 C 79 % 1026,3 hPa 0,0 mm 0,5 km/h (0 Bft) N 360 -5,7 C 0,0 km/h (0 Bft)
21.01.2016 10:55 -2,7 C -1,8 C 79 % 1026,3 hPa 0,0 mm 0,5 km/h (0 Bft) N 360 -5,8 C 0,0 km/h (0 Bft)
21.01.2016 11:00 -3,0 C -2,4 C 79 % 1026,3 hPa 0,0 mm 0,3 km/h (0 Bft) N 360 -6,1 C 0,0 km/h (0 Bft)
21.01.2016 11:05 -3,1 C -2,8 C 79 % 1025,9 hPa 0,0 mm 0,8 km/h (0 Bft) N 360 -6,2 C 4,1 km/h (1 Bft)
21.01.2016 11:10 -3,2 C -3,1 C 79 % 1025,9 hPa 0,0 mm 1,3 km/h (1 Bft) N 360 -6,3 C 3,1 km/h (1 Bft)
21.01.2016 11:15 -3,2 C -3,2 C 79 % 1025,9 hPa 0,0 mm 1,3 km/h (1 Bft) N 360 -6,3 C 3,6 km/h (1 Bft)
21.01.2016 11:20 -3,4 C -3,3 C 79 % 1025,9 hPa 0,0 mm 2,1 km/h (1 Bft) N 360 -6,5 C 7,8 km/h (2 Bft)
21.01.2016 11:25 -3,4 C -3,3 C 79 % 1026,0 hPa 0,0 mm 2,8 km/h (1 Bft) N 360 -6,5 C 0,0 km/h (0 Bft)
21.01.2016 11:30 -3,4 C -3,3 C 79 % 1026,0 hPa 0,0 mm 1,8 km/h (1 Bft) N 360 -6,5 C 0,0 km/h (0 Bft)
21.01.2016 11:35 -3,4 C -3,4 C 79 % 1026,0 hPa 0,0 mm 1,6 km/h (1 Bft) N 360 -6,5 C 3,4 km/h (1 Bft)
21.01.2016 11:40 -3,5 C -3,4 C 79 % 1026,0 hPa 0,0 mm 2,6 km/h (1 Bft) N 360 -6,6 C 5,7 km/h (1 Bft)
21.01.2016 11:45 -3,5 C -3,4 C 79 % 1025,8 hPa 0,0 mm 2,1 km/h (1 Bft) N 360 -6,6 C 3,1 km/h (1 Bft)
21.01.2016 11:50 -3,5 C -3,3 C 79 % 1025,8 hPa 0,0 mm 1,0 km/h (0 Bft) N 360 -6,6 C 7,5 km/h (2 Bft)
21.01.2016 11:55 -3,4 C -3,3 C 79 % 1025,8 hPa 0,0 mm 0,5 km/h (0 Bft) N 360 -6,5 C 3,9 km/h (1 Bft)
21.01.2016 12:00 -3,5 C -3,3 C 79 % 1025,8 hPa 0,0 mm 1,3 km/h (1 Bft) N 360 -6,6 C 0,0 km/h (0 Bft)
21.01.2016 12:05 -3,5 C -3,3 C 79 % 1025,8 hPa 0,0 mm 2,1 km/h (1 Bft) N 360 -6,6 C 9,3 km/h (2 Bft)
21.01.2016 12:10 -3,4 C -3,3 C 79 % 1025,8 hPa 0,0 mm 1,6 km/h (1 Bft) N 360 -6,5 C 0,0 km/h (0 Bft)
21.01.2016 12:15 -3,4 C -3,3 C 79 % 1025,8 hPa 0,0 mm 1,3 km/h (1 Bft) N 360 -6,5 C 3,6 km/h (1 Bft)
21.01.2016 12:20 -3,2 C -3,2 C 79 % 1025,8 hPa 0,0 mm 1,8 km/h (1 Bft) N 360 -6,3 C 0,0 km/h (0 Bft)
21.01.2016 12:25 -3,2 C -3,1 C 79 % 1025,8 hPa 0,0 mm 1,8 km/h (1 Bft) N 360 -6,3 C 0,0 km/h (0 Bft)
21.01.2016 12:30 -3,4 C -3,1 C 79 % 1025,8 hPa 0,0 mm 1,8 km/h (1 Bft) N 360 -6,5 C 0,0 km/h (0 Bft)
21.01.2016 12:35 -3,4 C -3,2 C 79 % 1025,8 hPa 0,0 mm 2,3 km/h (1 Bft) N 360 -6,5 C 7,0 km/h (2 Bft)
21.01.2016 12:40 -3,4 C -3,0 C 79 % 1025,8 hPa 0,0 mm 1,6 km/h (1 Bft) N 360 -6,5 C 3,1 km/h (1 Bft)
21.01.2016 12:45 -3,2 C -3,0 C 79 % 1025,7 hPa 0,0 mm 2,3 km/h (1 Bft) N 360 -6,3 C 4,7 km/h (1 Bft)
21.01.2016 12:50 -3,0 C -2,8 C 79 % 1025,7 hPa 0,0 mm 4,4 km/h (1 Bft) N 360 -6,1 C 7,8 km/h (2 Bft)
21.01.2016 12:55 -2,9 C -2,9 C 79 % 1025,7 hPa 0,0 mm 5,4 km/h (1 Bft) N 360 -6,0 C 7,3 km/h (2 Bft)
21.01.2016 13:00 -2,6 C -2,5 C 79 % 1025,7 hPa 0,0 mm 4,9 km/h (1 Bft) N 360 -5,7 C 3,9 km/h (1 Bft)
21.01.2016 13:05 -2,6 C -2,2 C 79 % 1026,0 hPa 0,0 mm 4,1 km/h (1 Bft) N 360 -5,7 C 4,9 km/h (1 Bft)
21.01.2016 13:10 -2,4 C -2,1 C 78 % 1026,0 hPa 0,0 mm 5,2 km/h (1 Bft) N 360 -5,7 C 6,7 km/h (2 Bft)
21.01.2016 13:15 -2,2 C -2,1 C 78 % 1026,0 hPa 0,0 mm 6,5 km/h (2 Bft) N 360 -5,5 C 8,5 km/h (2 Bft)
21.01.2016 13:20 -2,1 C -1,8 C 78 % 1026,0 hPa 0,0 mm 6,2 km/h (2 Bft) N 360 -5,4 C 11,1 km/h (2 Bft)
21.01.2016 13:25 -2,1 C -1,7 C 78 % 1025,8 hPa 0,0 mm 6,0 km/h (2 Bft) N 360 -5,4 C 7,3 km/h (2 Bft)
21.01.2016 13:30 -2,1 C -1,9 C 77 % 1025,8 hPa 0,0 mm 6,2 km/h (2 Bft) N 360 -5,6 C 10,1 km/h (2 Bft)
21.01.2016 13:35 -2,1 C -2,0 C 77 % 1025,8 hPa 0,0 mm 6,7 km/h (2 Bft) N 360 -5,6 C 8,0 km/h (2 Bft)
21.01.2016 13:40 -2,2 C -2,1 C 77 % 1025,8 hPa 0,0 mm 5,7 km/h (1 Bft) N 360 -5,7 C 4,7 km/h (1 Bft)
21.01.2016 13:45 -2,2 C -1,8 C 77 % 1025,8 hPa 0,0 mm 4,1 km/h (1 Bft) N 360 -5,7 C 7,3 km/h (2 Bft)
21.01.2016 13:50 -2,1 C -1,0 C 77 % 1025,8 hPa 0,0 mm 3,1 km/h (1 Bft) N 360 -5,6 C 4,9 km/h (1 Bft)
21.01.2016 13:55 -2,0 C -0,3 C 77 % 1025,8 hPa 0,0 mm 4,4 km/h (1 Bft) N 360 -5,5 C 8,5 km/h (2 Bft)
21.01.2016 14:00 -1,8 C -1,1 C 77 % 1025,8 hPa 0,0 mm 5,7 km/h (1 Bft) N 360 -5,3 C 8,0 km/h (2 Bft)
21.01.2016 14:05 -1,6 C -0,3 C 77 % 1025,9 hPa 0,0 mm 5,4 km/h (1 Bft) NO 45 -5,1 C 8,3 km/h (2 Bft)
21.01.2016 14:10 -1,2 C 0,7 C 77 % 1025,9 hPa 0,0 mm 5,4 km/h (1 Bft) O-NO 67 -4,7 C 8,0 km/h (2 Bft)
21.01.2016 14:15 -1,5 C 0,4 C 76 % 1025,9 hPa 0,0 mm 5,4 km/h (1 Bft) O-NO 67 -5,2 C 3,1 km/h (1 Bft)
21.01.2016 14:20 -1,6 C -0,8 C 76 % 1025,9 hPa 0,0 mm 6,5 km/h (2 Bft) O-NO 67 -5,3 C 12,9 km/h (3 Bft)
21.01.2016 14:25 -1,7 C -0,9 C 76 % 1026,1 hPa 0,0 mm 6,7 km/h (2 Bft) O-NO 67 -5,4 C 9,3 km/h (2 Bft)
21.01.2016 14:30 -1,7 C -1,3 C 76 % 1026,1 hPa 0,0 mm 6,7 km/h (2 Bft) O-NO 67 -5,4 C 12,9 km/h (3 Bft)
21.01.2016 14:35 -1,7 C -1,2 C 76 % 1026,1 hPa 0,0 mm 6,5 km/h (2 Bft) O-NO 67 -5,4 C 8,3 km/h (2 Bft)
21.01.2016 14:40 -1,9 C -1,7 C 76 % 1026,1 hPa 0,0 mm 7,5 km/h (2 Bft) O-NO 67 -5,6 C 12,4 km/h (3 Bft)
21.01.2016 14:45 -2,0 C -2,1 C 76 % 1025,9 hPa 0,0 mm 9,3 km/h (2 Bft) O-NO 67 -5,6 C 14,2 km/h (3 Bft)
21.01.2016 14:50 -2,1 C -2,3 C 76 % 1025,9 hPa 0,0 mm 8,8 km/h (2 Bft) O-NO 67 -5,7 C 10,4 km/h (2 Bft)
21.01.2016 14:55 -2,1 C -2,3 C 76 % 1025,9 hPa 0,0 mm 8,0 km/h (2 Bft) O-NO 67 -5,7 C 19,4 km/h (3 Bft)
21.01.2016 15:00 -2,1 C -2,0 C 77 % 1025,9 hPa 0,0 mm 6,7 km/h (2 Bft) O-NO 67 -5,6 C 6,0 km/h (2 Bft)
21.01.2016 15:05 -2,1 C -2,0 C 77 % 1026,0 hPa 0,0 mm 5,7 km/h (1 Bft) O-NO 67 -5,6 C 5,7 km/h (1 Bft)
21.01.2016 15:10 -2,2 C -2,4 C 77 % 1026,0 hPa 0,0 mm 6,7 km/h (2 Bft) O-NO 67 -5,7 C 11,1 km/h (2 Bft)
21.01.2016 15:15 -2,2 C -2,5 C 77 % 1026,0 hPa 0,0 mm 7,3 km/h (2 Bft) O-NO 67 -5,7 C 7,5 km/h (2 Bft)
21.01.2016 15:20 -2,4 C -2,5 C 77 % 1026,0 hPa 0,0 mm 7,0 km/h (2 Bft) O-NO 67 -5,9 C 7,8 km/h (2 Bft)
21.01.2016 15:25 -2,4 C -2,5 C 77 % 1026,2 hPa 0,0 mm 6,5 km/h (2 Bft) O-NO 67 -5,9 C 8,0 km/h (2 Bft)
21.01.2016 15:30 -2,4 C -2,3 C 77 % 1026,2 hPa 0,0 mm 5,4 km/h (1 Bft) O-NO 67 -5,9 C 4,7 km/h (1 Bft)
21.01.2016 15:35 -2,4 C -2,2 C 77 % 1026,2 hPa 0,0 mm 4,9 km/h (1 Bft) O-NO 67 -5,9 C 3,9 km/h (1 Bft)
21.01.2016 15:40 -2,4 C -2,2 C 77 % 1026,2 hPa 0,0 mm 4,4 km/h (1 Bft) O-NO 67 -5,9 C 5,4 km/h (1 Bft)
21.01.2016 15:45 -2,4 C -2,4 C 77 % 1026,4 hPa 0,0 mm 5,2 km/h (1 Bft) O-NO 67 -5,9 C 9,8 km/h (2 Bft)
21.01.2016 15:49 -2,5 C -2,8 C 77 % 1026,4 hPa 0,0 mm 6,5 km/h (2 Bft) O-NO 67 -6,0 C 9,1 km/h (2 Bft)
21.01.2016 15:51 -2,5 C -2,8 C 77 % 1026,4 hPa 0,0 mm 6,5 km/h (2 Bft) O-NO 67 -6,0 C 9,1 km/h (2 Bft)
21.01.2016 15:55 -2,5 C -2,9 C 77 % 1026,4 hPa 0,0 mm 6,7 km/h (2 Bft) O-NO 67 -6,0 C 8,3 km/h (2 Bft)
21.01.2016 16:00 -2,6 C -2,8 C 77 % 1026,4 hPa 0,0 mm 5,7 km/h (1 Bft) O-NO 67 -6,1 C 4,9 km/h (1 Bft)
21.01.2016 16:05 -2,6 C -2,8 C 77 % 1026,7 hPa 0,0 mm 5,4 km/h (1 Bft) O-NO 67 -6,1 C 6,5 km/h (2 Bft)
21.01.2016 16:10 -2,6 C -2,5 C 77 % 1026,7 hPa 0,0 mm 3,6 km/h (1 Bft) O-NO 67 -6,1 C 3,4 km/h (1 Bft)
21.01.2016 16:15 -2,7 C -2,6 C 77 % 1026,7 hPa 0,0 mm 2,6 km/h (1 Bft) O-NO 67 -6,2 C 0,0 km/h (0 Bft)
21.01.2016 16:20 -2,7 C -2,7 C 77 % 1026,7 hPa 0,0 mm 2,3 km/h (1 Bft) O-NO 67 -6,2 C 2,8 km/h (1 Bft)
21.01.2016 16:25 -2,7 C -2,8 C 77 % 1026,4 hPa 0,0 mm 1,8 km/h (1 Bft) O-NO 67 -6,2 C 4,7 km/h (1 Bft)
21.01.2016 16:30 -2,9 C -2,9 C 77 % 1026,4 hPa 0,0 mm 1,8 km/h (1 Bft) O-NO 67 -6,4 C 3,6 km/h (1 Bft)
21.01.2016 16:35 -2,9 C -2,9 C 77 % 1026,4 hPa 0,0 mm 2,1 km/h (1 Bft) O-NO 67 -6,4 C 3,4 km/h (1 Bft)
21.01.2016 16:40 -2,9 C -3,1 C 78 % 1026,4 hPa 0,0 mm 1,8 km/h (1 Bft) O-NO 67 -6,2 C 4,4 km/h (1 Bft)
21.01.2016 16:45 -3,1 C -3,3 C 78 % 1026,2 hPa 0,0 mm 1,3 km/h (1 Bft) O-NO 67 -6,4 C 4,9 km/h (1 Bft)
21.01.2016 16:50 -3,4 C -3,6 C 78 % 1026,2 hPa 0,0 mm 1,3 km/h (1 Bft) O-NO 67 -6,7 C 2,8 km/h (1 Bft)
21.01.2016 16:55 -3,6 C -3,8 C 77 % 1026,2 hPa 0,0 mm 0,8 km/h (0 Bft) O-NO 67 -7,0 C 0,0 km/h (0 Bft)
21.01.2016 17:00 -3,8 C -4,1 C 78 % 1026,2 hPa 0,0 mm 0,8 km/h (0 Bft) O-NO 67 -7,1 C 3,1 km/h (1 Bft)
21.01.2016 17:05 -3,8 C -4,0 C 78 % 1026,5 hPa 0,0 mm 0,5 km/h (0 Bft) O-NO 67 -7,1 C 0,0 km/h (0 Bft)
21.01.2016 17:10 -3,9 C -4,1 C 78 % 1026,5 hPa 0,0 mm 0,3 km/h (0 Bft) O-NO 67 -7,2 C 0,0 km/h (0 Bft)
21.01.2016 17:15 -4,1 C -4,3 C 78 % 1026,5 hPa 0,0 mm 0,0 km/h (0 Bft) O-NO 67 -7,4 C 0,0 km/h (0 Bft)
21.01.2016 17:20 -4,2 C -4,4 C 78 % 1026,5 hPa 0,0 mm 0,8 km/h (0 Bft) O-NO 67 -7,4 C 4,1 km/h (1 Bft)
21.01.2016 17:25 -4,1 C -4,3 C 79 % 1026,5 hPa 0,0 mm 1,0 km/h (0 Bft) O-NO 67 -7,2 C 0,0 km/h (0 Bft)
21.01.2016 17:30 -4,1 C -4,4 C 79 % 1026,5 hPa 0,0 mm 0,5 km/h (0 Bft) O-NO 67 -7,2 C 0,0 km/h (0 Bft)
21.01.2016 17:35 -4,0 C -4,3 C 79 % 1026,5 hPa 0,0 mm 0,0 km/h (0 Bft) O-NO 67 -7,1 C 0,0 km/h (0 Bft)
21.01.2016 17:40 -4,3 C -4,5 C 79 % 1026,5 hPa 0,0 mm 0,3 km/h (0 Bft) O-NO 67 -7,4 C 0,0 km/h (0 Bft)
21.01.2016 17:45 -4,6 C -4,8 C 79 % 1026,7 hPa 0,0 mm 0,3 km/h (0 Bft) O-NO 67 -7,7 C 0,0 km/h (0 Bft)
21.01.2016 17:50 -4,8 C -5,1 C 79 % 1026,7 hPa 0,0 mm 0,0 km/h (0 Bft) O-NO 67 -7,9 C 0,0 km/h (0 Bft)
21.01.2016 17:55 -4,9 C -5,2 C 79 % 1026,7 hPa 0,0 mm 0,0 km/h (0 Bft) O-NO 67 -8,0 C 0,0 km/h (0 Bft)
21.01.2016 18:00 -5,0 C -5,3 C 79 % 1026,7 hPa 0,0 mm 0,0 km/h (0 Bft) O-NO 67 -8,1 C 0,0 km/h (0 Bft)
21.01.2016 18:05 -5,1 C -5,4 C 80 % 1026,8 hPa 0,0 mm 0,0 km/h (0 Bft) O-NO 67 -8,0 C 0,0 km/h (0 Bft)
21.01.2016 18:10 -5,1 C -5,4 C 80 % 1026,8 hPa 0,0 mm 0,3 km/h (0 Bft) O-NO 67 -8,0 C 0,0 km/h (0 Bft)
21.01.2016 18:15 -5,0 C -5,3 C 80 % 1026,8 hPa 0,0 mm 0,3 km/h (0 Bft) O-NO 67 -7,9 C 0,0 km/h (0 Bft)
21.01.2016 18:20 -4,9 C -5,2 C 81 % 1026,8 hPa 0,0 mm 0,3 km/h (0 Bft) O-NO 67 -7,6 C 0,0 km/h (0 Bft)
21.01.2016 18:25 -4,9 C -5,1 C 81 % 1026,8 hPa 0,0 mm 0,3 km/h (0 Bft) O-NO 67 -7,6 C 0,0 km/h (0 Bft)
21.01.2016 18:30 -4,9 C -5,1 C 81 % 1026,8 hPa 0,0 mm 0,3 km/h (0 Bft) O-NO 67 -7,6 C 0,0 km/h (0 Bft)
21.01.2016 18:35 -4,9 C -5,1 C 81 % 1026,8 hPa 0,0 mm 0,3 km/h (0 Bft) O-NO 67 -7,6 C 0,0 km/h (0 Bft)
21.01.2016 18:40 -4,5 C -4,8 C 82 % 1026,8 hPa 0,0 mm 0,3 km/h (0 Bft) O-NO 67 -7,1 C 0,0 km/h (0 Bft)
21.01.2016 18:45 -4,4 C -4,7 C 83 % 1026,9 hPa 0,0 mm 0,8 km/h (0 Bft) O-NO 67 -6,8 C 2,6 km/h (1 Bft)
21.01.2016 18:50 -4,4 C -4,6 C 83 % 1026,9 hPa 0,0 mm 1,6 km/h (1 Bft) O-NO 67 -6,8 C 0,0 km/h (0 Bft)
21.01.2016 18:55 -4,4 C -4,6 C 83 % 1026,9 hPa 0,0 mm 1,3 km/h (1 Bft) O-NO 67 -6,8 C 0,0 km/h (0 Bft)
21.01.2016 19:00 -4,4 C -4,6 C 83 % 1026,9 hPa 0,0 mm 1,0 km/h (0 Bft) O-NO 67 -6,8 C 3,6 km/h (1 Bft)
21.01.2016 19:05 -4,4 C -4,6 C 83 % 1027,0 hPa 0,0 mm 1,0 km/h (0 Bft) O-NO 67 -6,8 C 0,0 km/h (0 Bft)
21.01.2016 19:10 -4,4 C -4,6 C 83 % 1027,0 hPa 0,0 mm 0,8 km/h (0 Bft) O-NO 67 -6,8 C 5,7 km/h (1 Bft)
21.01.2016 19:15 -4,3 C -4,5 C 83 % 1027,0 hPa 0,0 mm 1,8 km/h (1 Bft) O-NO 67 -6,7 C 4,4 km/h (1 Bft)
21.01.2016 19:20 -4,3 C -4,7 C 84 % 1027,0 hPa 0,0 mm 4,4 km/h (1 Bft) O-NO 67 -6,6 C 5,7 km/h (1 Bft)
21.01.2016 19:25 -4,3 C -4,8 C 84 % 1027,0 hPa 0,0 mm 4,7 km/h (1 Bft) O-NO 67 -6,6 C 0,0 km/h (0 Bft)
21.01.2016 19:30 -4,3 C -4,5 C 84 % 1027,0 hPa 0,0 mm 2,8 km/h (1 Bft) O-NO 67 -6,6 C 3,1 km/h (1 Bft)
21.01.2016 19:35 -4,4 C -4,6 C 84 % 1027,0 hPa 0,0 mm 2,1 km/h (1 Bft) O-NO 67 -6,7 C 4,1 km/h (1 Bft)
21.01.2016 19:40 -4,4 C -4,6 C 84 % 1027,0 hPa 0,0 mm 1,6 km/h (1 Bft) O-NO 67 -6,7 C 0,0 km/h (0 Bft)
21.01.2016 19:45 -4,4 C -4,6 C 84 % 1027,2 hPa 0,0 mm 1,8 km/h (1 Bft) O-NO 67 -6,7 C 3,9 km/h (1 Bft)
21.01.2016 19:50 -4,5 C -4,7 C 84 % 1027,2 hPa 0,0 mm 1,8 km/h (1 Bft) O-NO 67 -6,8 C 3,6 km/h (1 Bft)
21.01.2016 19:55 -4,6 C -4,8 C 84 % 1027,2 hPa 0,0 mm 1,6 km/h (1 Bft) O-NO 67 -6,9 C 3,6 km/h (1 Bft)
21.01.2016 20:00 -4,9 C -5,1 C 84 % 1027,2 hPa 0,0 mm 1,0 km/h (0 Bft) O-NO 67 -7,2 C 2,6 km/h (1 Bft)
21.01.2016 20:05 -5,0 C -5,2 C 84 % 1027,2 hPa 0,0 mm 0,8 km/h (0 Bft) O-NO 67 -7,3 C 0,0 km/h (0 Bft)
21.01.2016 20:10 -5,1 C -5,4 C 84 % 1027,2 hPa 0,0 mm 0,3 km/h (0 Bft) O-NO 67 -7,4 C 0,0 km/h (0 Bft)
21.01.2016 20:15 -5,1 C -5,4 C 84 % 1027,2 hPa 0,0 mm 0,0 km/h (0 Bft) O-NO 67 -7,4 C 0,0 km/h (0 Bft)
21.01.2016 20:20 -5,1 C -5,4 C 84 % 1027,2 hPa 0,0 mm 0,0 km/h (0 Bft) O-NO 67 -7,4 C 0,0 km/h (0 Bft)
21.01.2016 20:25 -5,2 C -5,5 C 84 % 1027,2 hPa 0,0 mm 0,3 km/h (0 Bft) O-NO 67 -7,5 C 0,0 km/h (0 Bft)
21.01.2016 20:30 -5,1 C -5,4 C 84 % 1027,2 hPa 0,0 mm 0,3 km/h (0 Bft) O-NO 67 -7,4 C 0,0 km/h (0 Bft)
21.01.2016 20:35 -5,2 C -5,5 C 84 % 1027,2 hPa 0,0 mm 0,0 km/h (0 Bft) O-NO 67 -7,5 C 0,0 km/h (0 Bft)
21.01.2016 20:40 -5,4 C -5,7 C 84 % 1027,2 hPa 0,0 mm 0,0 km/h (0 Bft) O-NO 67 -7,7 C 0,0 km/h (0 Bft)
21.01.2016 20:45 -5,5 C -5,8 C 84 % 1027,5 hPa 0,0 mm 0,0 km/h (0 Bft) O-NO 67 -7,8 C 0,0 km/h (0 Bft)
21.01.2016 20:50 -5,9 C -6,3 C 84 % 1027,5 hPa 0,0 mm 0,0 km/h (0 Bft) O-NO 67 -8,2 C 0,0 km/h (0 Bft)
21.01.2016 20:55 -5,9 C -6,4 C 84 % 1027,5 hPa 0,0 mm 0,0 km/h (0 Bft) O-NO 67 -8,2 C 0,0 km/h (0 Bft)
21.01.2016 21:00 -6,1 C -6,6 C 84 % 1027,5 hPa 0,0 mm 0,0 km/h (0 Bft) O-NO 67 -8,4 C 0,0 km/h (0 Bft)
21.01.2016 21:05 -6,2 C -6,7 C 85 % 1027,5 hPa 0,0 mm 0,0 km/h (0 Bft) O-NO 67 -8,3 C 0,0 km/h (0 Bft)
21.01.2016 21:10 -6,2 C -6,6 C 85 % 1027,5 hPa 0,0 mm 0,0 km/h (0 Bft) O-NO 67 -8,3 C 0,0 km/h (0 Bft)
21.01.2016 21:15 -6,2 C -6,4 C 81 % 1027,5 hPa 0,0 mm 0,0 km/h (0 Bft) O-NO 67 -8,9 C 0,0 km/h (0 Bft)
21.01.2016 21:20 -6,0 C -6,2 C 86 % 1027,5 hPa 0,0 mm 0,0 km/h (0 Bft) O-NO 67 -8,0 C 0,0 km/h (0 Bft)
21.01.2016 21:25 -6,0 C -6,2 C 86 % 1027,8 hPa 0,0 mm 0,0 km/h (0 Bft) O-NO 67 -8,0 C 2,6 km/h (1 Bft)
21.01.2016 21:30 -6,0 C -6,2 C 86 % 1027,8 hPa 0,0 mm 0,3 km/h (0 Bft) O-NO 67 -8,0 C 0,0 km/h (0 Bft)
21.01.2016 21:35 -6,0 C -6,2 C 86 % 1027,8 hPa 0,0 mm 0,3 km/h (0 Bft) O-NO 67 -8,0 C 0,0 km/h (0 Bft)
21.01.2016 21:40 -6,4 C -6,5 C 86 % 1027,8 hPa 0,0 mm 0,3 km/h (0 Bft) O-NO 67 -8,3 C 0,0 km/h (0 Bft)
21.01.2016 21:45 -6,7 C -6,8 C 86 % 1028,0 hPa 0,0 mm 0,0 km/h (0 Bft) O-NO 67 -8,6 C 0,0 km/h (0 Bft)
21.01.2016 21:50 -6,8 C -7,0 C 86 % 1028,0 hPa 0,0 mm 0,0 km/h (0 Bft) O-NO 67 -8,7 C 0,0 km/h (0 Bft)
21.01.2016 21:52 -6,8 C -7,0 C 86 % 1028,0 hPa 0,0 mm 0,0 km/h (0 Bft) O-NO 67 -8,7 C 0,0 km/h (0 Bft)
21.01.2016 21:55 -6,9 C -7,1 C 86 % 1028,0 hPa 0,0 mm 0,0 km/h (0 Bft) O-NO 67 -8,8 C 0,0 km/h (0 Bft)
21.01.2016 22:00 -6,9 C -7,2 C 85 % 1028,0 hPa 0,0 mm 0,0 km/h (0 Bft) O-NO 67 -9,0 C 0,0 km/h (0 Bft)
21.01.2016 22:05 -6,9 C -7,0 C 81 % 1028,0 hPa 0,0 mm 0,0 km/h (0 Bft) O-NO 67 -9,6 C 0,0 km/h (0 Bft)
21.01.2016 22:10 -6,9 C -6,9 C 81 % 1028,0 hPa 0,0 mm 0,0 km/h (0 Bft) O-NO 67 -9,6 C 0,0 km/h (0 Bft)
21.01.2016 22:15 -6,7 C -6,8 C 81 % 1028,0 hPa 0,0 mm 0,0 km/h (0 Bft) O-NO 67 -9,4 C 0,0 km/h (0 Bft)
21.01.2016 22:20 -6,6 C -6,7 C 81 % 1028,0 hPa 0,0 mm 0,3 km/h (0 Bft) O-NO 67 -9,3 C 0,0 km/h (0 Bft)
21.01.2016 22:25 -6,6 C -6,7 C 81 % 1028,0 hPa 0,0 mm 0,3 km/h (0 Bft) O-NO 67 -9,3 C 0,0 km/h (0 Bft)
21.01.2016 22:30 -6,7 C -6,8 C 81 % 1028,0 hPa 0,0 mm 0,0 km/h (0 Bft) O-NO 67 -9,4 C 0,0 km/h (0 Bft)
21.01.2016 22:35 -6,6 C -6,8 C 81 % 1028,0 hPa 0,0 mm 0,0 km/h (0 Bft) O-NO 67 -9,3 C 0,0 km/h (0 Bft)
21.01.2016 22:40 -6,7 C -6,9 C 86 % 1028,0 hPa 0,0 mm 0,0 km/h (0 Bft) O-NO 67 -8,6 C 0,0 km/h (0 Bft)
21.01.2016 22:45 -6,6 C -6,8 C 82 % 1028,2 hPa 0,0 mm 0,0 km/h (0 Bft) O-NO 67 -9,1 C 3,1 km/h (1 Bft)
21.01.2016 22:50 -6,4 C -6,6 C 86 % 1028,2 hPa 0,0 mm 0,3 km/h (0 Bft) O-NO 67 -8,3 C 0,0 km/h (0 Bft)
21.01.2016 22:55 -6,6 C -6,8 C 86 % 1028,2 hPa 0,0 mm 0,3 km/h (0 Bft) O-NO 67 -8,5 C 0,0 km/h (0 Bft)
21.01.2016 23:00 -7,0 C -7,1 C 86 % 1028,2 hPa 0,0 mm 0,0 km/h (0 Bft) O-NO 67 -8,9 C 0,0 km/h (0 Bft)
21.01.2016 23:05 -7,1 C -7,2 C 86 % 1028,3 hPa 0,0 mm 0,0 km/h (0 Bft) O-NO 67 -9,0 C 0,0 km/h (0 Bft)
21.01.2016 23:10 -6,9 C -7,0 C 81 % 1028,3 hPa 0,0 mm 0,0 km/h (0 Bft) O-NO 67 -9,6 C 2,8 km/h (1 Bft)
21.01.2016 23:15 -6,6 C -6,8 C 82 % 1028,3 hPa 0,0 mm 1,3 km/h (1 Bft) O-NO 67 -9,1 C 4,1 km/h (1 Bft)
21.01.2016 23:20 -6,3 C -6,6 C 86 % 1028,3 hPa 0,0 mm 1,3 km/h (1 Bft) O-NO 67 -8,2 C 0,0 km/h (0 Bft)
21.01.2016 23:25 -6,3 C -6,5 C 86 % 1028,2 hPa 0,0 mm 0,3 km/h (0 Bft) O-NO 67 -8,2 C 0,0 km/h (0 Bft)
21.01.2016 23:30 -6,4 C -6,6 C 86 % 1028,2 hPa 0,0 mm 0,8 km/h (0 Bft) O-NO 67 -8,3 C 3,9 km/h (1 Bft)
21.01.2016 23:35 -6,5 C -6,7 C 86 % 1028,2 hPa 0,0 mm 0,8 km/h (0 Bft) O-NO 67 -8,4 C 0,0 km/h (0 Bft)
21.01.2016 23:40 -6,6 C -6,8 C 86 % 1028,2 hPa 0,0 mm 1,0 km/h (0 Bft) O-NO 67 -8,5 C 3,1 km/h (1 Bft)
21.01.2016 23:45 -6,7 C -6,9 C 86 % 1028,2 hPa 0,0 mm 1,0 km/h (0 Bft) O-NO 67 -8,6 C 0,0 km/h (0 Bft)
21.01.2016 23:50 -6,9 C -7,1 C 86 % 1028,2 hPa 0,0 mm 1,0 km/h (0 Bft) O-NO 67 -8,8 C 0,0 km/h (0 Bft)
21.01.2016 23:55 -7,0 C -7,2 C 86 % 1028,2 hPa 0,0 mm 0,8 km/h (0 Bft) O-NO 67 -8,9 C 0,0 km/h (0 Bft)
_ Min-Zeit 23:05 23:55 14:55 00:00 - 23:10 - - 23:10 23:55
Minimum _ -7,1 C -7,2 C 76 % 1022,0 hPa - 0,0 km/h (0 Bft) - - -9,6 C 0,0 km/h (0 Bft)
_ Max-Zeit 14:10 14:10 02:25 23:20 23:55 00:25 - - 14:10 14:55
Maximum _ -1,2 C 0,7 C 88 % 1028,3 hPa 0,0 mm 9,8 km/h
N (2 Bft)
- - -4,7 C 19,4 km/h
O-NO (3 Bft)
Durchschnitt _ -4,6 C -4,7 C 83 % 1025,4 hPa #0,0 mm 1,7 km/h (1 Bft) N - -7,1 C 2,4 km/h (1 Bft)